This is the latest recevied weather packets stored in our database for station/object KC0SIQ-13. If no packets are shown the sender has not sent any weather packets the latest 10 day(s).
| Time | Temp. | Humidity | Pressure | Rain* | Wind** | Luminosity | Snow |
|---|---|---|---|---|---|---|---|
| 1777919069 | 21.11° C | 27% | 1005.5 hPa | 0 mm | - | 118 W/m² | - |
| 1777918766 | 21.11° C | 25% | 1005.7 hPa | 0 mm | - | 86 W/m² | - |
| 1777918463 | 21.67° C | 24% | 1005.6 hPa | 0 mm | - | 78 W/m² | - |
| 1777918162 | 22.22° C | 24% | 1005.7 hPa | 0 mm | - | 102 W/m² | - |
| 1777917860 | 22.22° C | 24% | 1005.4 hPa | 0 mm | - | 130 W/m² | - |
| 1777917558 | 22.78° C | 23% | 1005.4 hPa | 0 mm | - | 154 W/m² | - |
| 1777917255 | 22.78° C | 23% | 1005.6 hPa | 0 mm | - | 196 W/m² | - |
| 1777916953 | 22.78° C | 22% | 1005.4 hPa | 0 mm | - | 252 W/m² | - |
| 1777916650 | 23.33° C | 22% | 1005.5 hPa | 0 mm | - | 268 W/m² | - |
| 1777916347 | 23.33° C | 22% | 1005.7 hPa | 0 mm | - | 377 W/m² | - |
| 1777916043 | 22.78° C | 22% | 1005.6 hPa | 0 mm | - | 391 W/m² | - |
| 1777915741 | 22.22° C | 22% | 1005.6 hPa | 0 mm | - | 521 W/m² | - |
| 1777915437 | 22.78° C | 22% | 1005.9 hPa | 0 mm | - | 368 W/m² | - |
| 1777915132 | 22.78° C | 21% | 1005.7 hPa | 0 mm | - | 407 W/m² | - |
| 1777914830 | 22.78° C | 23% | 1005.7 hPa | 0 mm | - | 408 W/m² | - |
| 1777914528 | 22.22° C | 23% | 1005.9 hPa | 0 mm | - | 459 W/m² | - |
| 1777914224 | 22.22° C | 24% | 1005.9 hPa | 0 mm | - | 320 W/m² | - |
| 1777913921 | 21.67° C | 24% | 1005.6 hPa | 0 mm | - | 269 W/m² | - |
| 1777913617 | 22.22° C | 23% | 1005.6 hPa | 0 mm | - | 258 W/m² | - |
| 1777913313 | 22.22° C | 24% | 1005.7 hPa | 0 mm | - | 259 W/m² | - |
| 1777913011 | 21.67° C | 24% | 1005.9 hPa | 0 mm | - | 262 W/m² | - |
| 1777912706 | 22.22° C | 23% | 1006 hPa | 0 mm | - | 242 W/m² | - |
| 1777912403 | 21.67° C | 23% | 1005.9 hPa | 0 mm | - | 233 W/m² | - |
| 1777912099 | 21.67° C | 24% | 1005.7 hPa | 0 mm | - | 231 W/m² | - |
| 1777911795 | 21.67° C | 24% | 1005.7 hPa | 0 mm | - | 242 W/m² | - |
* Rain latest hour (hover to see other rain measurements)
** Current wind speed in m/s (hover to see current wind gust speed)